Lexington Weather

Lexington, Massachusetts, USA

32°F
12/8/2019 4:21pm 
  • Lexington Conditions: Mostly cloudy
  • Temperature: 32.4°F / 0.2°CColder 1.0°F than last hour.
  • Dew Point: 18.0°FIncreased 2.2°Fsince last hour.
  • Relative Humidity: 55%Increased 7.0% since last hour.
  • Wind: Wind from SSW SSW 1 mph, 10-min avg: 2 mph, gust: 5 mph
  • Barometer: 30.41 in Steady
  • Visibility: 10 miles
  • Snow Today: 0.0 in
  •   

Regional Weather Roundup
for Boston / Norton, MA

        
000
ASUS41 KBOX 060610
RWRBOX

REGIONAL WEATHER ROUNDUP
NATIONAL WEATHER SERVICE BOSTON/NORTON MA
100 AM EST FRI DEC 06 2019

NOTE:  "FAIR" INDICATES FEW OR NO CLOUDS BELOW 12,000 FEET WITH NO 
SIGNIFICANT WEATHER AND/OR OBSTRUCTIONS TO VISIBILITY.

MAZALL-060700-
EASTERN MASSACHUSETTS
  
CITY           SKY/WX    TMP DP  RH WIND       PRES   REMARKS
BOSTON         FAIR      32  14  47 W14G25    29.98R WCI  22          
6HR MIN TEMP:  32; 6HR MAX TEMP:  39;                                

BEVERLY        FAIR      29  14  53 W12G21    29.96R WCI  19          
LAWRENCE       FAIR      28  13  53 W12       29.98R WCI  18          
BEDFORD        FAIR      28  12  51 W7        29.97R WCI  21          
BLUE HILL        N/A     24  16  71 W10       29.94R WCI  14          
NORWOOD        FAIR      31  14  49 W7        29.99R WCI  24          
MARSHFIELD     FAIR      32  16  51 VRB5G15   29.98R WCI  27          
PLYMOUTH       FAIR      30  17  58 W10       29.98R WCI  21          
TAUNTON        FAIR      31  15  52 W5        29.99R WCI  26          
NEW BEDFORD    FAIR      31  15  52 W10       29.99R WCI  22          
$$

MAZALL-060700-
CAPE COD AND THE ISLANDS
  
CITY           SKY/WX    TMP DP  RH WIND       PRES   REMARKS
FALMOUTH       CLEAR     30  16  55 NW17G29   29.98R WCI  18          
HYANNIS        FAIR      32  16  51 W9        29.97R WCI  24          
CHATHAM        FAIR      33  19  56 W9G23     29.98R WCI  25          
PROVINCETOWN   FAIR      33  19  56 W24G32    29.97R WCI  20          
NANTUCKET      CLOUDY    34  19  54 W18G24    29.98R WCI  23          
MARTHAS VNYRD  FAIR      33  18  53 NW9       29.99R WCI  25          
$$
 
MAZALL-060700-
CENTRAL AND WESTERN MASSACHUSETTS
  
CITY           SKY/WX    TMP DP  RH WIND       PRES   REMARKS
WORCESTER      FAIR      24  13  62 W9        29.94R WCI  14          
6HR MIN TEMP:  24; 6HR MAX TEMP:  29;                                

FITCHBURG      FAIR      23  13  65 W5        29.98R WCI  17          
ORANGE         FAIR      24  12  60 CALM      29.98R                  
SPRINGFIELD    FAIR      27  14  59 W9        30.01R WCI  17          
WESTFIELD      FAIR      29  15  56 NW5       30.02R WCI  24          
NORTH ADAMS    FAIR      26  14  60 W15       29.99S WCI  14          
PITTSFIELD     MOCLDY    25  15  66 W10G20    29.97R WCI  15          
$$
 
RIZALL-060700-
RHODE ISLAND
  
CITY           SKY/WX    TMP DP  RH WIND       PRES   REMARKS
PROVIDENCE     FAIR      30  16  56 W10G17    30.02R WCI  21          
6HR MIN TEMP:  30; 6HR MAX TEMP:  36;                                

NEWPORT        FAIR      33  17  51 NW17G23   30.01R WCI  22          
BLOCK ISLAND   CLOUDY    34  19  54 W14G26    30.04R WCI  25          
SMITHFIELD     FAIR      28  16  60 W12       29.99R WCI  18          
WESTERLY       FAIR      34  18  52 W8        30.04R WCI  27          
$$
 
CTZALL-060700-
CONNECTICUT
  
CITY           SKY/WX    TMP DP  RH WIND       PRES   REMARKS
BRADLEY INTL   FAIR      31  17  56 W13       30.04R WCI  21          
6HR MIN TEMP:  31; 6HR MAX TEMP:  37; 6HR PCP: TRACE;                

HARTFORD       FAIR      32  18  56 NW8       30.06R WCI  25          
BRIDGEPORT     FAIR      35  20  54 W9        30.07R WCI  28          
DANBURY        FAIR      32  19  58 W9        30.06R WCI  24          
GROTON         FAIR      32  19  58 NW7       30.04R WCI  26          
NEW HAVEN      FAIR      37  21  52 VRB5      30.06R                  
CHESTER        FAIR      30  21  69 NW3       30.03R                  
MERIDEN        MOCLDY    29  22  75 CALM      30.06R                  
WILLIMANTIC    FAIR      30  17  58 NW7G17    30.04R WCI  23          
OXFORD         FAIR      30  20  66 W5        30.04R WCI  25          
$$

MEZ002-015-021-024-NHZ003-005-008-011-012-014-VTZ005-008-060700-
NORTHERN NEW ENGLAND
  
CITY           SKY/WX    TMP DP  RH WIND       PRES   REMARKS
PORTLAND ME    FAIR      30  16  56 NW14      29.89R WCI  19          
6HR MIN TEMP:  29; 6HR MAX TEMP:  38;                                

BANGOR ME      MOCLDY    29  19  66 W8        29.81R WCI  21          
CONCORD NH     CLOUDY    27  13  55 NW13      29.95R WCI  16          
MANCHESTER NH  FAIR      28  13  53 W10       29.95R WCI  19          
NASHUA NH      FAIR      27  16  63 W8        29.98R WCI  19          
PORTSMOUTH NH  PTCLDY    28  12  50 W17G24    29.91R WCI  16          
JAFFREY NH     FAIR      25  12  58 W10       29.94R WCI  15          
KEENE NH       FAIR      24  15  68 CALM      29.98R                  
BURLINGTON VT  CLOUDY    27  15  61 NW13      30.00R WCI  16          
MT. WASHINGTON SNOWSHWR   0   0 100 W56G64      N/A  VSB 1/16WCI -33  
$$

NYZ052-076-060700-
EASTERN NEW YORK
  
CITY           SKY/WX    TMP DP  RH WIND       PRES   REMARKS
ALBANY         CLOUDY    30  17  58 CALM      30.06R                  
6HR MIN TEMP:  28; 6HR MAX TEMP:  32;                                

NEW YORK CITY  MOCLDY    38  22  52 NW22G29   30.11R WCI  27          
6HR MIN TEMP:  37; 6HR MAX TEMP:  40;                                

$$
 
ANZALL-060700-
MARINE OBSERVATIONS
  
STATION/POSITION TIME  TEMP    WIND        PRES    VSBY  WAVE
                       AIR SEA DIR/SP/G                  HT/PER
                 (UTC) (F)     (DEG/KT/KT) (MB)    (MI)  (FT/S)
BOSTON BUOY      0550   33 48  300/ 25/ 31 1013.7R         4/ 4
BUZZARDS BAY     0500   35     310/ 22/ 24 1015.6R
NANTUCKET SOUND  0540      45                N/A           3/ 4
MASS BAY-STELLWA 0504   33 46  310/ 21/ 25 1011.5R  1 7/8  3/ 4
ISLE OF SHOALS   0500   32     290/ 19/ 22 1011.7R
S OF BLOCK IS    0530      50                N/A           8/ 6
$$

......................KEY.........................
  SKY/WX - SKY CONDITION/PRESENT WEATHER
  TMP    - TEMPERATURE IN FAHRENHEIT
  DWPT   - DEWPOINT IN FAHRENHEIT
  RH     - RELATIVE HUMIDITY IN PERCENT
  WIND   - DIRECTION AND SPEED IN MPH
  PRES   - MEAN SEA LEVEL PRESSURE IN INCHES OF HG
  WCI    - WIND CHILL INDEX
  VSB    - VISIBILITY IN MILES
  HX     - HEAT INDEX
  TC     - TEMPERATURE IN CELSIUS
  VRB    - VARIABLE WIND DIRECTION
  N/A    - NOT AVAILABLE
  
      

Other recent Regional Weather Roundups

Sun Dec 8, 4:10pm

Sun Dec 8, 4:01pm

Sun Dec 8, 3:10pm

Sun Dec 8, 3:01pm

Sun Dec 8, 2:10pm

Sun Dec 8, 2:01pm

Sun Dec 8, 1:10pm

Sun Dec 8, 1:00pm

Sun Dec 8, 12:10pm

Sun Dec 8, 12:01pm

Sun Dec 8, 11:10am

Sun Dec 8, 11:00am

Sun Dec 8, 10:10am

Sun Dec 8, 10:01am

Sun Dec 8, 9:10am

Sun Dec 8, 9:00am

Sun Dec 8, 8:10am

Sun Dec 8, 8:00am

Sun Dec 8, 7:10am

Sun Dec 8, 7:00am

Sun Dec 8, 6:10am

Sun Dec 8, 6:00am

Sun Dec 8, 5:10am

Sun Dec 8, 5:00am

Sun Dec 8, 4:10am

Sun Dec 8, 4:00am

Sun Dec 8, 3:10am

Sun Dec 8, 3:00am

Sun Dec 8, 2:10am

Sun Dec 8, 2:00am

Sun Dec 8, 1:10am

Sun Dec 8, 1:00am

Sun Dec 8, 12:10am

Sun Dec 8, 12:01am

Sat Dec 7, 11:10pm

Sat Dec 7, 11:00pm

Sat Dec 7, 10:10pm

Sat Dec 7, 10:00pm

Sat Dec 7, 9:10pm

Sat Dec 7, 9:00pm

Sat Dec 7, 8:10pm

Sat Dec 7, 8:00pm

Sat Dec 7, 7:10pm

Sat Dec 7, 7:00pm

Sat Dec 7, 6:10pm

Sat Dec 7, 6:00pm

Sat Dec 7, 5:10pm

Sat Dec 7, 5:00pm

Sat Dec 7, 4:10pm

Sat Dec 7, 4:00pm

Sat Dec 7, 3:10pm

Sat Dec 7, 3:00pm

Sat Dec 7, 2:10pm

Sat Dec 7, 2:01pm

Sat Dec 7, 1:10pm

Sat Dec 7, 1:00pm

Sat Dec 7, 12:10pm

Sat Dec 7, 12:01pm

Sat Dec 7, 11:10am

Sat Dec 7, 11:00am

Sat Dec 7, 10:10am

Sat Dec 7, 10:01am

Sat Dec 7, 9:10am

Sat Dec 7, 9:00am

Sat Dec 7, 8:10am

Sat Dec 7, 8:00am

Sat Dec 7, 7:10am

Sat Dec 7, 7:00am

Sat Dec 7, 6:10am

Sat Dec 7, 6:00am

Sat Dec 7, 5:10am

Sat Dec 7, 5:00am

Sat Dec 7, 4:10am

Sat Dec 7, 4:00am

Sat Dec 7, 3:10am

Sat Dec 7, 3:00am

Sat Dec 7, 2:10am

Sat Dec 7, 2:01am

Sat Dec 7, 1:10am

Sat Dec 7, 1:00am

Sat Dec 7, 12:10am

Sat Dec 7, 12:01am

Fri Dec 6, 11:10pm

Fri Dec 6, 11:00pm

Fri Dec 6, 10:10pm

Fri Dec 6, 10:00pm

Fri Dec 6, 9:10pm

Fri Dec 6, 9:00pm

Fri Dec 6, 8:10pm

Fri Dec 6, 8:00pm

Fri Dec 6, 7:10pm

Fri Dec 6, 7:01pm

Fri Dec 6, 6:10pm

Fri Dec 6, 6:00pm

Fri Dec 6, 5:10pm

Fri Dec 6, 5:00pm

Fri Dec 6, 4:10pm

Fri Dec 6, 4:00pm

Fri Dec 6, 3:10pm

Fri Dec 6, 3:00pm

Fri Dec 6, 2:10pm

Fri Dec 6, 2:00pm

Fri Dec 6, 1:10pm

Fri Dec 6, 1:00pm

Fri Dec 6, 12:10pm

Fri Dec 6, 12:00pm

Fri Dec 6, 11:10am

Fri Dec 6, 11:00am

Fri Dec 6, 10:10am

Fri Dec 6, 10:00am

Fri Dec 6, 9:10am

Fri Dec 6, 9:00am

Fri Dec 6, 8:10am

Fri Dec 6, 8:00am

Fri Dec 6, 7:10am

Fri Dec 6, 7:00am

Fri Dec 6, 6:10am

Fri Dec 6, 6:01am

Fri Dec 6, 5:10am

Fri Dec 6, 5:00am

Fri Dec 6, 4:10am

Fri Dec 6, 4:00am

Fri Dec 6, 3:10am

Fri Dec 6, 3:00am

Fri Dec 6, 2:10am

Fri Dec 6, 2:00am

Fri Dec 6, 1:00am

Fri Dec 6, 12:10am

Fri Dec 6, 12:00am

Thu Dec 5, 11:10pm

Thu Dec 5, 11:00pm

Thu Dec 5, 10:10pm

Thu Dec 5, 10:01pm

Thu Dec 5, 9:10pm

Thu Dec 5, 9:01pm

Thu Dec 5, 8:10pm

Thu Dec 5, 8:00pm

Thu Dec 5, 7:10pm

Thu Dec 5, 7:00pm

Thu Dec 5, 6:10pm

Thu Dec 5, 6:00pm

Thu Dec 5, 5:10pm

Thu Dec 5, 5:00pm

Meta data:

ID: c8f8385f-1452-4c38-b53a-ca197a640f25
Link: https://api.weather.gov/products/c8f8385f-1452-4c38-b53a-ca197a640f25